Year,Month,Day,Hour,Minute,Value (Times are PST for temperature in C)
2013,10,13,00,00,5.20
2013,10,13,00,01,5.20
2013,10,13,00,02,5.10
2013,10,13,00,03,5.10
2013,10,13,00,04,5.10
2013,10,13,00,05,5.10
2013,10,13,00,06,5.10
2013,10,13,00,07,5.10
2013,10,13,00,08,5.00
2013,10,13,00,09,5.00
2013,10,13,00,10,5.00
2013,10,13,00,11,5.00
2013,10,13,00,12,5.00
2013,10,13,00,13,4.90
2013,10,13,00,14,4.90
2013,10,13,00,15,4.90
2013,10,13,00,16,4.90
2013,10,13,00,17,4.90
2013,10,13,00,18,4.90
2013,10,13,00,19,4.80
2013,10,13,00,20,4.80
2013,10,13,00,21,4.80
2013,10,13,00,22,4.80
2013,10,13,00,23,4.80
2013,10,13,00,24,4.80
2013,10,13,00,25,4.80
2013,10,13,00,26,4.80
2013,10,13,00,27,4.80
2013,10,13,00,28,4.80
2013,10,13,00,29,4.80
2013,10,13,00,30,4.80
2013,10,13,00,31,4.80
2013,10,13,00,32,4.80
2013,10,13,00,33,4.80
2013,10,13,00,34,4.80
2013,10,13,00,35,4.80
2013,10,13,00,36,4.80
2013,10,13,00,37,4.80
2013,10,13,00,38,4.80
2013,10,13,00,39,4.80
2013,10,13,00,40,4.70
2013,10,13,00,41,4.70
2013,10,13,00,42,4.70
2013,10,13,00,43,4.70
2013,10,13,00,44,4.70
2013,10,13,00,45,4.70
2013,10,13,00,46,4.70
2013,10,13,00,47,4.70
2013,10,13,00,48,4.60
2013,10,13,00,49,4.70
2013,10,13,00,50,4.60
2013,10,13,00,51,4.60
2013,10,13,00,52,4.60
2013,10,13,00,53,4.60
2013,10,13,00,54,4.60
2013,10,13,00,55,4.60
2013,10,13,00,56,4.60
2013,10,13,00,57,4.60
2013,10,13,00,58,4.60
2013,10,13,00,59,4.50
2013,10,13,01,00,4.50
2013,10,13,01,01,4.50
2013,10,13,01,02,4.60
2013,10,13,01,03,4.60
2013,10,13,01,04,4.60
2013,10,13,01,05,4.60
2013,10,13,01,06,4.60
2013,10,13,01,07,4.60
2013,10,13,01,08,4.60
2013,10,13,01,09,4.60
2013,10,13,01,10,4.60
2013,10,13,01,11,4.50
2013,10,13,01,12,4.50
2013,10,13,01,13,4.50
2013,10,13,01,14,4.50
2013,10,13,01,15,4.50
2013,10,13,01,16,4.40
2013,10,13,01,17,4.40
2013,10,13,01,18,4.40
2013,10,13,01,19,4.40
2013,10,13,01,20,4.40
2013,10,13,01,21,4.40
2013,10,13,01,22,4.40
2013,10,13,01,23,4.50
2013,10,13,01,24,4.50
2013,10,13,01,25,4.50
2013,10,13,01,26,4.50
2013,10,13,01,27,4.50
2013,10,13,01,28,4.50
2013,10,13,01,29,4.50
2013,10,13,01,30,4.50
2013,10,13,01,31,4.50
2013,10,13,01,32,4.50
2013,10,13,01,33,4.50
2013,10,13,01,34,4.50
2013,10,13,01,35,4.50
2013,10,13,01,36,4.50
2013,10,13,01,37,4.60
2013,10,13,01,38,4.60
2013,10,13,01,39,4.50
2013,10,13,01,40,4.50
2013,10,13,01,41,4.60
2013,10,13,01,42,4.60
2013,10,13,01,43,4.60
2013,10,13,01,44,4.60
2013,10,13,01,45,4.60
2013,10,13,01,46,4.60
2013,10,13,01,47,4.60
2013,10,13,01,48,4.60
2013,10,13,01,49,4.60
2013,10,13,01,50,4.60
2013,10,13,01,51,4.60
2013,10,13,01,52,4.60
2013,10,13,01,53,4.60
2013,10,13,01,54,4.70
2013,10,13,01,55,4.70
2013,10,13,01,56,4.70
2013,10,13,01,57,4.70
2013,10,13,01,58,4.70
2013,10,13,01,59,4.70
2013,10,13,02,00,4.70
2013,10,13,02,01,4.70
2013,10,13,02,02,4.70
2013,10,13,02,03,4.70
2013,10,13,02,04,4.70
2013,10,13,02,05,4.70
2013,10,13,02,06,4.70
2013,10,13,02,07,4.70
2013,10,13,02,08,4.80
2013,10,13,02,09,4.80
2013,10,13,02,10,4.80
2013,10,13,02,11,4.80
2013,10,13,02,12,4.80
2013,10,13,02,13,4.80
2013,10,13,02,14,4.80
2013,10,13,02,15,4.80
2013,10,13,02,16,4.80
2013,10,13,02,17,4.90
2013,10,13,02,18,4.90
2013,10,13,02,19,4.90
2013,10,13,02,20,4.90
2013,10,13,02,21,4.90
2013,10,13,02,22,4.90
2013,10,13,02,23,4.90
2013,10,13,02,24,4.90
2013,10,13,02,25,5.00
2013,10,13,02,26,5.00
2013,10,13,02,27,5.00
2013,10,13,02,28,5.00
2013,10,13,02,29,5.00
2013,10,13,02,30,5.10
2013,10,13,02,31,5.10
2013,10,13,02,32,5.10
2013,10,13,02,33,5.10
2013,10,13,02,34,5.10
2013,10,13,02,35,5.10
2013,10,13,02,36,5.10
2013,10,13,02,37,5.10
2013,10,13,02,38,5.10
2013,10,13,02,39,5.10
2013,10,13,02,40,5.10
2013,10,13,02,41,5.10
2013,10,13,02,42,5.10
2013,10,13,02,43,5.10
2013,10,13,02,44,5.10
2013,10,13,02,45,5.10
2013,10,13,02,46,5.10
2013,10,13,02,47,5.10
2013,10,13,02,48,5.10
2013,10,13,02,49,5.10
2013,10,13,02,50,5.10
2013,10,13,02,51,5.00
2013,10,13,02,52,5.00
2013,10,13,02,53,5.00
2013,10,13,02,54,5.00
2013,10,13,02,55,5.00
2013,10,13,02,56,5.00
2013,10,13,02,57,5.00
2013,10,13,02,58,5.00
2013,10,13,02,59,5.00
2013,10,13,03,00,5.00
2013,10,13,03,01,5.00
2013,10,13,03,02,5.00
2013,10,13,03,03,5.00
2013,10,13,03,04,5.00
2013,10,13,03,05,5.00
2013,10,13,03,06,5.00
2013,10,13,03,07,5.00
2013,10,13,03,08,5.00
2013,10,13,03,09,5.00
2013,10,13,03,10,5.00
2013,10,13,03,11,5.00
2013,10,13,03,12,5.10
2013,10,13,03,13,5.10
2013,10,13,03,14,5.10
2013,10,13,03,15,5.10
2013,10,13,03,16,5.10
2013,10,13,03,17,5.10
2013,10,13,03,18,5.10
2013,10,13,03,19,5.10
2013,10,13,03,20,5.10
2013,10,13,03,21,5.10
2013,10,13,03,22,5.10
2013,10,13,03,23,5.10
2013,10,13,03,24,5.10
2013,10,13,03,25,5.10
2013,10,13,03,26,5.10
2013,10,13,03,27,5.10
2013,10,13,03,28,5.10
2013,10,13,03,29,5.10
2013,10,13,03,30,5.10
2013,10,13,03,31,5.10
2013,10,13,03,32,5.10
2013,10,13,03,33,5.10
2013,10,13,03,34,5.10
2013,10,13,03,35,5.20
2013,10,13,03,36,5.20
2013,10,13,03,37,5.20
2013,10,13,03,38,5.20
2013,10,13,03,39,5.20
2013,10,13,03,40,5.20
2013,10,13,03,41,5.20
2013,10,13,03,42,5.20
2013,10,13,03,43,5.20
2013,10,13,03,44,5.20
2013,10,13,03,45,5.20
2013,10,13,03,46,5.20
2013,10,13,03,47,5.20
2013,10,13,03,48,5.20
2013,10,13,03,49,5.30
2013,10,13,03,50,5.30
2013,10,13,03,51,5.30
2013,10,13,03,52,5.30
2013,10,13,03,53,5.30
2013,10,13,03,54,5.30
2013,10,13,03,55,5.30
2013,10,13,03,56,5.30
2013,10,13,03,57,5.30
2013,10,13,03,58,5.30
2013,10,13,03,59,5.30
2013,10,13,04,00,5.40
2013,10,13,04,01,5.40
2013,10,13,04,02,5.40
2013,10,13,04,03,5.40
2013,10,13,04,04,5.50
2013,10,13,04,05,5.50
2013,10,13,04,06,5.50
2013,10,13,04,07,5.60
2013,10,13,04,08,5.60
2013,10,13,04,09,5.60
2013,10,13,04,10,5.60
2013,10,13,04,11,5.60
2013,10,13,04,12,5.60
2013,10,13,04,13,5.70
2013,10,13,04,14,5.70
2013,10,13,04,15,5.70
2013,10,13,04,16,5.70
2013,10,13,04,17,5.70
2013,10,13,04,18,5.70
2013,10,13,04,19,5.70
2013,10,13,04,20,5.70
2013,10,13,04,21,5.70
2013,10,13,04,22,5.70
2013,10,13,04,23,5.70
2013,10,13,04,24,5.80
2013,10,13,04,25,5.80
2013,10,13,04,26,5.80
2013,10,13,04,27,5.80
2013,10,13,04,28,5.80
2013,10,13,04,29,5.80
2013,10,13,04,30,5.80
2013,10,13,04,31,5.80
2013,10,13,04,32,5.80
2013,10,13,04,33,5.80
2013,10,13,04,34,5.70
2013,10,13,04,35,5.70
2013,10,13,04,36,5.70
2013,10,13,04,37,5.70
2013,10,13,04,38,5.60
2013,10,13,04,39,5.60
2013,10,13,04,40,5.60
2013,10,13,04,41,5.60
2013,10,13,04,42,5.60
2013,10,13,04,43,5.60
2013,10,13,04,44,5.60
2013,10,13,04,45,5.60
2013,10,13,04,46,5.60
2013,10,13,04,47,5.60
2013,10,13,04,48,5.60
2013,10,13,04,49,5.60
2013,10,13,04,50,5.60
2013,10,13,04,51,5.60
2013,10,13,04,52,5.70
2013,10,13,04,53,5.70
2013,10,13,04,54,5.70
2013,10,13,04,55,5.70
2013,10,13,04,56,5.70
2013,10,13,04,57,5.70
2013,10,13,04,58,5.70
2013,10,13,04,59,5.70
2013,10,13,05,00,5.70
2013,10,13,05,01,5.70
2013,10,13,05,02,5.70
2013,10,13,05,03,5.70
2013,10,13,05,04,5.70
2013,10,13,05,05,5.70
2013,10,13,05,06,5.70
2013,10,13,05,07,5.70
2013,10,13,05,08,5.70
2013,10,13,05,09,5.70
2013,10,13,05,10,5.70
2013,10,13,05,11,5.70
2013,10,13,05,12,5.80
2013,10,13,05,13,5.80
2013,10,13,05,14,5.80
2013,10,13,05,15,5.80
2013,10,13,05,16,5.80
2013,10,13,05,17,5.80
2013,10,13,05,18,5.80
2013,10,13,05,19,5.80
2013,10,13,05,20,5.80
2013,10,13,05,21,5.80
2013,10,13,05,22,5.90
2013,10,13,05,23,5.90
2013,10,13,05,24,5.90
2013,10,13,05,25,5.90
2013,10,13,05,26,5.90
2013,10,13,05,27,5.90
2013,10,13,05,28,5.90
2013,10,13,05,29,5.90
2013,10,13,05,30,5.90
2013,10,13,05,31,5.90
2013,10,13,05,32,5.90
2013,10,13,05,33,6.00
2013,10,13,05,34,6.10
2013,10,13,05,35,6.10
2013,10,13,05,36,6.10
2013,10,13,05,37,6.10
2013,10,13,05,38,6.10
2013,10,13,05,39,6.10
2013,10,13,05,40,6.10
2013,10,13,05,41,6.10
2013,10,13,05,42,6.00
2013,10,13,05,43,6.00
2013,10,13,05,44,6.00
2013,10,13,05,45,6.00
2013,10,13,05,46,6.00
2013,10,13,05,47,6.00
2013,10,13,05,48,6.00
2013,10,13,05,49,6.00
2013,10,13,05,50,6.00
2013,10,13,05,51,6.00
2013,10,13,05,52,6.00
2013,10,13,05,53,6.10
2013,10,13,05,54,6.00
2013,10,13,05,55,6.10
2013,10,13,05,56,6.10
2013,10,13,05,57,6.10
2013,10,13,05,58,6.10
2013,10,13,05,59,6.10
2013,10,13,06,00,6.10
2013,10,13,06,01,6.10
2013,10,13,06,02,6.10
2013,10,13,06,03,6.10
2013,10,13,06,04,6.10
2013,10,13,06,05,6.00
2013,10,13,06,06,6.00
2013,10,13,06,07,6.00
2013,10,13,06,08,6.00
2013,10,13,06,09,5.90
2013,10,13,06,10,5.90
2013,10,13,06,11,5.90
2013,10,13,06,12,5.90
2013,10,13,06,13,5.90
2013,10,13,06,14,5.90
2013,10,13,06,15,5.90
2013,10,13,06,16,5.90
2013,10,13,06,17,5.90
2013,10,13,06,18,5.90
2013,10,13,06,19,5.90
2013,10,13,06,20,5.90
2013,10,13,06,21,5.90
2013,10,13,06,22,5.90
2013,10,13,06,23,5.90
2013,10,13,06,24,5.90
2013,10,13,06,25,5.90
2013,10,13,06,26,5.90
2013,10,13,06,27,5.90
2013,10,13,06,28,5.90
2013,10,13,06,29,5.90
2013,10,13,06,30,5.90
2013,10,13,06,31,5.90
2013,10,13,06,32,5.90
2013,10,13,06,33,5.90
2013,10,13,06,34,5.90
2013,10,13,06,35,5.90
2013,10,13,06,36,5.90
2013,10,13,06,37,5.90
2013,10,13,06,38,5.90
2013,10,13,06,39,5.90
2013,10,13,06,40,5.90
2013,10,13,06,41,5.90
2013,10,13,06,42,5.90
2013,10,13,06,43,5.90
2013,10,13,06,44,5.90
2013,10,13,06,45,5.90
2013,10,13,06,46,5.90
2013,10,13,06,47,5.90
2013,10,13,06,48,5.90
2013,10,13,06,49,5.90
2013,10,13,06,50,5.90
2013,10,13,06,51,5.90
2013,10,13,06,52,5.90
2013,10,13,06,53,5.90
2013,10,13,06,54,5.90
2013,10,13,06,55,5.80
2013,10,13,06,56,5.80
2013,10,13,06,57,5.80
2013,10,13,06,58,5.80
2013,10,13,06,59,5.80
2013,10,13,07,00,5.80
2013,10,13,07,01,5.80
2013,10,13,07,02,5.80
2013,10,13,07,03,5.80
2013,10,13,07,04,5.80
2013,10,13,07,05,5.80
2013,10,13,07,06,5.80
2013,10,13,07,07,5.70
2013,10,13,07,08,5.70
2013,10,13,07,09,5.70
2013,10,13,07,10,5.70
2013,10,13,07,11,5.70
2013,10,13,07,12,5.70
2013,10,13,07,13,5.70
2013,10,13,07,14,5.70
2013,10,13,07,15,5.70
2013,10,13,07,16,5.70
2013,10,13,07,17,5.70
2013,10,13,07,18,5.70
2013,10,13,07,19,5.70
2013,10,13,07,20,5.70
2013,10,13,07,21,5.70
2013,10,13,07,22,5.70
2013,10,13,07,23,5.70
2013,10,13,07,24,5.80
2013,10,13,07,25,5.80
2013,10,13,07,26,5.80
2013,10,13,07,27,5.80
2013,10,13,07,28,5.80
2013,10,13,07,29,5.80
2013,10,13,07,30,5.80
2013,10,13,07,31,5.80
2013,10,13,07,32,5.80
2013,10,13,07,33,5.90
2013,10,13,07,34,5.90
2013,10,13,07,35,5.90
2013,10,13,07,36,6.00
2013,10,13,07,37,6.00
2013,10,13,07,38,6.00
2013,10,13,07,39,6.10
2013,10,13,07,40,6.10
2013,10,13,07,41,6.10
2013,10,13,07,42,6.10
2013,10,13,07,43,6.20
2013,10,13,07,44,6.20
2013,10,13,07,45,6.20
2013,10,13,07,46,6.20
2013,10,13,07,47,6.20
2013,10,13,07,48,6.20
2013,10,13,07,49,6.30
2013,10,13,07,50,6.30
2013,10,13,07,51,6.30
2013,10,13,07,52,6.30
2013,10,13,07,53,6.30
2013,10,13,07,54,6.30
2013,10,13,07,55,6.30
2013,10,13,07,56,6.30
2013,10,13,07,57,6.30
2013,10,13,07,58,6.40
2013,10,13,07,59,6.40
2013,10,13,08,00,6.40
2013,10,13,08,01,6.40
2013,10,13,08,02,6.40
2013,10,13,08,03,6.40
2013,10,13,08,04,6.40
2013,10,13,08,05,6.40
2013,10,13,08,06,6.40
2013,10,13,08,07,6.40
2013,10,13,08,08,6.50
2013,10,13,08,09,6.40
2013,10,13,08,10,6.50
2013,10,13,08,11,6.50
2013,10,13,08,12,6.50
2013,10,13,08,13,6.50
2013,10,13,08,14,6.50
2013,10,13,08,15,6.50
2013,10,13,08,16,6.50
2013,10,13,08,17,6.50
2013,10,13,08,18,6.60
2013,10,13,08,19,6.60
2013,10,13,08,20,6.60
2013,10,13,08,21,6.60
2013,10,13,08,22,6.60
2013,10,13,08,23,6.60
2013,10,13,08,24,6.60
2013,10,13,08,25,6.60
2013,10,13,08,26,6.60
2013,10,13,08,27,6.60
2013,10,13,08,28,6.70
2013,10,13,08,29,6.70
2013,10,13,08,30,6.70
2013,10,13,08,31,6.70
2013,10,13,08,32,6.70
2013,10,13,08,33,6.70
2013,10,13,08,34,6.70
2013,10,13,08,35,6.70
2013,10,13,08,36,6.70
2013,10,13,08,37,6.70
2013,10,13,08,38,6.70
2013,10,13,08,39,6.70
2013,10,13,08,40,6.70
2013,10,13,08,41,6.70
2013,10,13,08,42,6.70
2013,10,13,08,43,6.70
2013,10,13,08,44,6.70
2013,10,13,08,45,6.70
2013,10,13,08,46,6.70
2013,10,13,08,47,6.70
2013,10,13,08,48,6.70
2013,10,13,08,49,6.70
2013,10,13,08,50,6.80
2013,10,13,08,51,6.80
2013,10,13,08,52,6.80
2013,10,13,08,53,6.80
2013,10,13,08,54,6.80
2013,10,13,08,55,6.80
2013,10,13,08,56,6.80
2013,10,13,08,57,6.80
2013,10,13,08,58,6.80
2013,10,13,08,59,6.90
2013,10,13,09,00,6.90
2013,10,13,09,01,6.90
2013,10,13,09,02,6.90
2013,10,13,09,03,6.90
2013,10,13,09,04,6.90
2013,10,13,09,05,6.90
2013,10,13,09,06,7.00
2013,10,13,09,07,7.00
2013,10,13,09,08,7.00
2013,10,13,09,09,7.00
2013,10,13,09,10,7.10
2013,10,13,09,11,7.10
2013,10,13,09,12,7.10
2013,10,13,09,13,7.10
2013,10,13,09,14,7.10
2013,10,13,09,15,7.20
2013,10,13,09,16,7.20
2013,10,13,09,17,7.20
2013,10,13,09,18,7.20
2013,10,13,09,19,7.20
2013,10,13,09,20,7.20
2013,10,13,09,21,7.20
2013,10,13,09,22,7.20
2013,10,13,09,23,7.20
2013,10,13,09,24,7.20
2013,10,13,09,25,7.20
2013,10,13,09,26,7.20
2013,10,13,09,27,7.20
2013,10,13,09,28,7.20
2013,10,13,09,29,7.20
2013,10,13,09,30,7.20
2013,10,13,09,31,7.20
2013,10,13,09,32,7.20
2013,10,13,09,33,7.30
2013,10,13,09,34,7.30
2013,10,13,09,35,7.30
2013,10,13,09,36,7.30
2013,10,13,09,37,7.30
2013,10,13,09,38,7.30
2013,10,13,09,39,7.30
2013,10,13,09,40,7.30
2013,10,13,09,41,7.30
2013,10,13,09,42,7.30
2013,10,13,09,43,7.30
2013,10,13,09,44,7.30
2013,10,13,09,45,7.30
2013,10,13,09,46,7.30
2013,10,13,09,47,7.30
2013,10,13,09,48,7.30
2013,10,13,09,49,7.40
2013,10,13,09,50,7.40
2013,10,13,09,51,7.40
2013,10,13,09,52,7.40
2013,10,13,09,53,7.40
2013,10,13,09,54,7.40
2013,10,13,09,55,7.40
2013,10,13,09,56,7.50
2013,10,13,09,57,7.50
2013,10,13,09,58,7.50
2013,10,13,09,59,7.50
2013,10,13,10,00,7.60
2013,10,13,10,01,7.60
2013,10,13,10,02,7.60
2013,10,13,10,03,7.60
2013,10,13,10,04,7.60
2013,10,13,10,05,7.60
2013,10,13,10,06,7.60
2013,10,13,10,07,7.60
2013,10,13,10,08,7.60
2013,10,13,10,09,7.60
2013,10,13,10,10,7.60
2013,10,13,10,11,7.60
2013,10,13,10,12,7.60
2013,10,13,10,13,7.60
2013,10,13,10,14,7.60
2013,10,13,10,15,7.60
2013,10,13,10,16,7.60
2013,10,13,10,17,7.60
2013,10,13,10,18,7.60
2013,10,13,10,19,7.60
2013,10,13,10,20,7.60
2013,10,13,10,21,7.60
2013,10,13,10,22,7.70
2013,10,13,10,23,7.70
2013,10,13,10,24,7.70
2013,10,13,10,25,7.70
2013,10,13,10,26,7.70
2013,10,13,10,27,7.70
2013,10,13,10,28,7.70
2013,10,13,10,29,7.70
2013,10,13,10,30,7.70
2013,10,13,10,31,7.70
2013,10,13,10,32,7.70
2013,10,13,10,33,7.70
2013,10,13,10,34,7.70
2013,10,13,10,35,7.70
2013,10,13,10,36,7.70
2013,10,13,10,37,7.70
2013,10,13,10,38,7.70
2013,10,13,10,39,7.70
2013,10,13,10,40,7.80
2013,10,13,10,41,7.80
2013,10,13,10,42,7.80
2013,10,13,10,43,7.80
2013,10,13,10,44,7.80
2013,10,13,10,45,7.80
2013,10,13,10,46,7.80
2013,10,13,10,47,7.90
2013,10,13,10,48,7.90
2013,10,13,10,49,7.90
2013,10,13,10,50,7.90
2013,10,13,10,51,7.90
2013,10,13,10,52,7.90
2013,10,13,10,53,7.90
2013,10,13,10,54,8.00
2013,10,13,10,55,8.00
2013,10,13,10,56,8.00
2013,10,13,10,57,8.00
2013,10,13,10,58,7.90
2013,10,13,10,59,7.90
2013,10,13,11,00,7.90
2013,10,13,11,01,8.00
2013,10,13,11,02,8.00
2013,10,13,11,03,8.00
2013,10,13,11,04,8.10
2013,10,13,11,05,8.10
2013,10,13,11,06,8.10
2013,10,13,11,07,8.10
2013,10,13,11,08,8.10
2013,10,13,11,09,8.10
2013,10,13,11,10,8.10
2013,10,13,11,11,8.20
2013,10,13,11,12,8.20
2013,10,13,11,13,8.20
2013,10,13,11,14,8.30
2013,10,13,11,15,8.30
2013,10,13,11,16,8.30
2013,10,13,11,17,8.30
2013,10,13,11,18,8.30
2013,10,13,11,19,8.30
2013,10,13,11,20,8.30
2013,10,13,11,21,8.30
2013,10,13,11,22,8.30
2013,10,13,11,23,8.30
2013,10,13,11,24,8.30
2013,10,13,11,25,8.30
2013,10,13,11,26,8.30
2013,10,13,11,27,8.30
2013,10,13,11,28,8.30
2013,10,13,11,29,8.30
2013,10,13,11,30,8.30
2013,10,13,11,31,8.30
2013,10,13,11,32,8.30
2013,10,13,11,33,8.30
2013,10,13,11,34,8.30
2013,10,13,11,35,8.30
2013,10,13,11,36,8.30
2013,10,13,11,37,8.30
2013,10,13,11,38,8.30
2013,10,13,11,39,8.30
2013,10,13,11,40,8.30
2013,10,13,11,41,8.40
2013,10,13,11,42,8.40
2013,10,13,11,43,8.40
2013,10,13,11,44,8.40
2013,10,13,11,45,8.50
2013,10,13,11,46,8.50
2013,10,13,11,47,8.50
2013,10,13,11,48,8.50
2013,10,13,11,49,8.50
2013,10,13,11,50,8.50
2013,10,13,11,51,8.50
2013,10,13,11,52,8.50
2013,10,13,11,53,8.50
2013,10,13,11,54,8.50
2013,10,13,11,55,8.50
2013,10,13,11,56,8.50
2013,10,13,11,57,8.40
2013,10,13,11,58,8.50
2013,10,13,11,59,8.50
2013,10,13,12,00,8.50
2013,10,13,12,01,8.50
2013,10,13,12,02,8.50
2013,10,13,12,03,8.50
2013,10,13,12,04,8.50
2013,10,13,12,05,8.50
2013,10,13,12,06,8.60
2013,10,13,12,07,8.60
2013,10,13,12,08,8.60
2013,10,13,12,09,8.60
2013,10,13,12,10,8.60
2013,10,13,12,11,8.70
2013,10,13,12,12,8.70
2013,10,13,12,13,8.70
2013,10,13,12,14,8.70
2013,10,13,12,15,8.70
2013,10,13,12,16,8.80
2013,10,13,12,17,8.80
2013,10,13,12,18,8.80
2013,10,13,12,19,8.80
2013,10,13,12,20,8.90
2013,10,13,12,21,8.90
2013,10,13,12,22,8.90
2013,10,13,12,23,8.90
2013,10,13,12,24,8.90
2013,10,13,12,25,9.00
2013,10,13,12,26,9.00
2013,10,13,12,27,9.00
2013,10,13,12,28,9.10
2013,10,13,12,29,9.10
2013,10,13,12,30,9.20
2013,10,13,12,31,9.20
2013,10,13,12,32,9.20
2013,10,13,12,33,9.20
2013,10,13,12,34,9.30
2013,10,13,12,35,9.30
2013,10,13,12,36,9.30
2013,10,13,12,37,9.30
2013,10,13,12,38,9.30
2013,10,13,12,39,9.30
2013,10,13,12,40,9.30
2013,10,13,12,41,9.40
2013,10,13,12,42,9.40
2013,10,13,12,43,9.40
2013,10,13,12,44,9.40
2013,10,13,12,45,9.40
2013,10,13,12,46,9.40
2013,10,13,12,47,9.40
2013,10,13,12,48,9.40
2013,10,13,12,49,9.40
2013,10,13,12,50,9.40
2013,10,13,12,51,9.40
2013,10,13,12,52,9.50
2013,10,13,12,53,9.40
2013,10,13,12,54,9.40
2013,10,13,12,55,9.40
2013,10,13,12,56,9.40
2013,10,13,12,57,9.30
2013,10,13,12,58,9.30
2013,10,13,12,59,9.40
2013,10,13,13,00,9.40
2013,10,13,13,01,9.40
2013,10,13,13,02,9.40
2013,10,13,13,03,9.40
2013,10,13,13,04,9.50
2013,10,13,13,05,9.50
2013,10,13,13,06,9.50
2013,10,13,13,07,9.50
2013,10,13,13,08,9.50
2013,10,13,13,09,9.50
2013,10,13,13,10,9.50
2013,10,13,13,11,9.60
2013,10,13,13,12,9.60
2013,10,13,13,13,9.60
2013,10,13,13,14,9.60
2013,10,13,13,15,9.60
2013,10,13,13,16,9.60
2013,10,13,13,17,9.60
2013,10,13,13,18,9.60
2013,10,13,13,19,9.70
2013,10,13,13,20,9.70
2013,10,13,13,21,9.80
2013,10,13,13,22,9.80
2013,10,13,13,23,9.80
2013,10,13,13,24,9.80
2013,10,13,13,25,9.80
2013,10,13,13,26,9.90
2013,10,13,13,27,9.90
2013,10,13,13,28,9.90
2013,10,13,13,29,9.90
2013,10,13,13,30,9.90
2013,10,13,13,31,9.90
2013,10,13,13,32,10.00
2013,10,13,13,33,10.00
2013,10,13,13,34,10.10
2013,10,13,13,35,10.20
2013,10,13,13,36,10.20
2013,10,13,13,37,10.20
2013,10,13,13,38,10.30
2013,10,13,13,39,10.30
2013,10,13,13,40,10.40
2013,10,13,13,41,10.40
2013,10,13,13,42,10.40
2013,10,13,13,43,10.50
2013,10,13,13,44,10.60
2013,10,13,13,45,10.60
2013,10,13,13,46,10.60
2013,10,13,13,47,10.70
2013,10,13,13,48,10.70
2013,10,13,13,49,10.80
2013,10,13,13,50,10.80
2013,10,13,13,51,10.90
2013,10,13,13,52,10.90
2013,10,13,13,53,11.00
2013,10,13,13,54,11.00
2013,10,13,13,55,11.00
2013,10,13,13,56,11.10
2013,10,13,13,57,11.10
2013,10,13,13,58,11.20
2013,10,13,13,59,11.30
2013,10,13,14,00,11.30
2013,10,13,14,01,11.40
2013,10,13,14,02,11.40
2013,10,13,14,03,11.40
2013,10,13,14,04,11.50
2013,10,13,14,05,11.60
2013,10,13,14,06,11.60
2013,10,13,14,07,11.70
2013,10,13,14,08,11.80
2013,10,13,14,09,11.80
2013,10,13,14,10,11.90
2013,10,13,14,11,12.00
2013,10,13,14,12,12.10
2013,10,13,14,13,12.10
2013,10,13,14,14,12.20
2013,10,13,14,15,12.20
2013,10,13,14,16,12.30
2013,10,13,14,17,12.30
2013,10,13,14,18,12.40
2013,10,13,14,19,12.50
2013,10,13,14,20,12.60
2013,10,13,14,21,12.60
2013,10,13,14,22,12.70
2013,10,13,14,23,12.80
2013,10,13,14,24,12.80
2013,10,13,14,25,12.80
2013,10,13,14,26,12.90
2013,10,13,14,27,13.00
2013,10,13,14,28,13.00
2013,10,13,14,29,13.10
2013,10,13,14,30,13.20
2013,10,13,14,31,13.20
2013,10,13,14,32,13.30
2013,10,13,14,33,13.30
2013,10,13,14,34,13.30
2013,10,13,14,35,13.30
2013,10,13,14,36,13.40
2013,10,13,14,37,13.40
2013,10,13,14,38,13.50
2013,10,13,14,39,13.60
2013,10,13,14,40,13.60
2013,10,13,14,41,13.70
2013,10,13,14,42,13.70
2013,10,13,14,43,13.70
2013,10,13,14,44,13.80
2013,10,13,14,45,13.90
2013,10,13,14,46,14.00
2013,10,13,14,47,14.10
2013,10,13,14,48,14.20
2013,10,13,14,49,14.30
2013,10,13,14,50,14.40
2013,10,13,14,51,14.50
2013,10,13,14,52,14.50
2013,10,13,14,53,14.60
2013,10,13,14,54,14.60
2013,10,13,14,55,14.60
2013,10,13,14,56,14.60
2013,10,13,14,57,14.60
2013,10,13,14,58,14.60
2013,10,13,14,59,14.60
2013,10,13,15,00,14.60
2013,10,13,15,01,14.60
2013,10,13,15,02,14.60
2013,10,13,15,03,14.60
2013,10,13,15,04,14.50
2013,10,13,15,05,14.50
2013,10,13,15,06,14.50
2013,10,13,15,07,14.40
2013,10,13,15,08,14.40
2013,10,13,15,09,14.40
2013,10,13,15,10,14.50
2013,10,13,15,11,14.50
2013,10,13,15,12,14.60
2013,10,13,15,13,14.60
2013,10,13,15,14,14.70
2013,10,13,15,15,14.70
2013,10,13,15,16,14.70
2013,10,13,15,17,14.80
2013,10,13,15,18,14.80
2013,10,13,15,19,14.80
2013,10,13,15,20,14.90
2013,10,13,15,21,14.90
2013,10,13,15,22,14.90
2013,10,13,15,23,14.90
2013,10,13,15,24,14.90
2013,10,13,15,25,15.00
2013,10,13,15,26,15.10
2013,10,13,15,27,15.10
2013,10,13,15,28,15.10
2013,10,13,15,29,15.20
2013,10,13,15,30,15.20
2013,10,13,15,31,15.20
2013,10,13,15,32,15.10
2013,10,13,15,33,15.10
2013,10,13,15,34,15.10
2013,10,13,15,35,15.00
2013,10,13,15,36,15.00
2013,10,13,15,37,15.00
2013,10,13,15,38,15.00
2013,10,13,15,39,15.10
2013,10,13,15,40,15.10
2013,10,13,15,41,15.20
2013,10,13,15,42,15.20
2013,10,13,15,43,15.30
2013,10,13,15,44,15.30
2013,10,13,15,45,15.40
2013,10,13,15,46,15.50
2013,10,13,15,47,15.50
2013,10,13,15,48,15.60
2013,10,13,15,49,15.60
2013,10,13,15,50,15.70
2013,10,13,15,51,15.70
2013,10,13,15,52,15.70
2013,10,13,15,53,15.80
2013,10,13,15,54,15.80
2013,10,13,15,55,15.80
2013,10,13,15,56,15.90
2013,10,13,15,57,15.90
2013,10,13,15,58,16.00
2013,10,13,15,59,16.10
2013,10,13,16,00,16.10
2013,10,13,16,01,16.10
2013,10,13,16,02,16.20
2013,10,13,16,03,16.20
2013,10,13,16,04,16.20
2013,10,13,16,05,16.20
2013,10,13,16,06,16.20
2013,10,13,16,07,16.20
2013,10,13,16,08,16.20
2013,10,13,16,09,16.20
2013,10,13,16,10,16.10
2013,10,13,16,11,16.10
2013,10,13,16,12,16.00
2013,10,13,16,13,16.00
2013,10,13,16,14,15.90
2013,10,13,16,15,15.90
2013,10,13,16,16,15.80
2013,10,13,16,17,15.80
2013,10,13,16,18,15.80
2013,10,13,16,19,15.80
2013,10,13,16,20,15.80
2013,10,13,16,21,15.80
2013,10,13,16,22,15.90
2013,10,13,16,23,15.80
2013,10,13,16,24,15.80
2013,10,13,16,25,15.80
2013,10,13,16,26,15.90
2013,10,13,16,27,15.90
2013,10,13,16,28,15.90
2013,10,13,16,29,16.00
2013,10,13,16,30,16.00
2013,10,13,16,31,16.00
2013,10,13,16,32,16.00
2013,10,13,16,33,16.00
2013,10,13,16,34,16.00
2013,10,13,16,35,16.00
2013,10,13,16,36,15.90
2013,10,13,16,37,15.90
2013,10,13,16,38,15.90
2013,10,13,16,39,15.80
2013,10,13,16,40,15.80
2013,10,13,16,41,15.80
2013,10,13,16,42,15.80
2013,10,13,16,43,15.70
2013,10,13,16,44,15.70
2013,10,13,16,45,15.60
2013,10,13,16,46,15.50
2013,10,13,16,47,15.30
2013,10,13,16,48,15.30
2013,10,13,16,49,15.20
2013,10,13,16,50,15.10
2013,10,13,16,51,15.10
2013,10,13,16,52,15.00
2013,10,13,16,53,14.90
2013,10,13,16,54,14.90
2013,10,13,16,55,14.90
2013,10,13,16,56,14.80
2013,10,13,16,57,14.80
2013,10,13,16,58,14.80
2013,10,13,16,59,14.90
2013,10,13,17,00,14.90
2013,10,13,17,01,14.90
2013,10,13,17,02,14.90
2013,10,13,17,03,14.90
2013,10,13,17,04,15.00
2013,10,13,17,05,15.00
2013,10,13,17,06,15.00
2013,10,13,17,07,15.00
2013,10,13,17,08,15.00
2013,10,13,17,09,15.00
2013,10,13,17,10,14.90
2013,10,13,17,11,14.90
2013,10,13,17,12,14.90
2013,10,13,17,13,14.90
2013,10,13,17,14,14.90
2013,10,13,17,15,14.90
2013,10,13,17,16,14.90
2013,10,13,17,17,14.90
2013,10,13,17,18,14.90
2013,10,13,17,19,14.80
2013,10,13,17,20,14.80
2013,10,13,17,21,14.70
2013,10,13,17,22,14.60
2013,10,13,17,23,14.60
2013,10,13,17,24,14.50
2013,10,13,17,25,14.40
2013,10,13,17,26,14.40
2013,10,13,17,27,14.40
2013,10,13,17,28,14.30
2013,10,13,17,29,14.30
2013,10,13,17,30,14.30
2013,10,13,17,31,14.30
2013,10,13,17,32,14.20
2013,10,13,17,33,14.20
2013,10,13,17,34,14.20
2013,10,13,17,35,14.20
2013,10,13,17,36,14.20
2013,10,13,17,37,14.20
2013,10,13,17,38,14.20
2013,10,13,17,39,14.30
2013,10,13,17,40,14.30
2013,10,13,17,41,14.30
2013,10,13,17,42,14.20
2013,10,13,17,43,14.20
2013,10,13,17,44,14.20
2013,10,13,17,45,14.20
2013,10,13,17,46,14.20
2013,10,13,17,47,14.10
2013,10,13,17,48,14.10
2013,10,13,17,49,14.10
2013,10,13,17,50,14.10
2013,10,13,17,51,14.00
2013,10,13,17,52,14.00
2013,10,13,17,53,14.00
2013,10,13,17,54,14.00